Weather History for Rensselaer, IN

Change the Weather History Date:

Monday, February 11, 2013

  Actual Average (KVPZ) Record (KVPZ)
Temperature  
Mean Temperature 40 °F 26 °F  
Max Temperature 48 °F 34 °F 70 °F (1999)
Min Temperature 32 °F 19 °F -11 °F (2014)
Degree Days  
Heating Degree Days 25 39  
Month to date heating degree days 438  
Since 1 July heating degree days 4123  
Cooling Degree Days 0 0  
Month to date cooling degree days 0  
Year to date cooling degree days 0  
Moisture  
Dew Point 29 °F    
Average Humidity 79    
Maximum Humidity 87    
Minimum Humidity 62    
Precipitation  
Precipitation 0.00 in 0.06 in 1.48 in (2009)
Month to date precipitation 0.53  
Year to date precipitation 2.28  
Sea Level Pressure  
Sea Level Pressure 29.84 in    
Wind  
Wind Speed 22 mph (WSW)    
Max Wind Speed 30 mph    
Max Gust Speed 41 mph    
Visibility 10 miles    
Events      
T = Trace of Precipitation, MM = Missing Value Source: NWS Daily Summary

Daily Weather History Graph

Daily Weather History Graph

Search for Another Location

Airport:

Trip Planner

Search our weather history database for the weather conditions in past years. The results will help you decide how hot, cold, wet, or windy it might be!

Date:

Astronomy

Feb. 11, 2013 Rise Set
Actual Time 6:47 AM CST 5:18 PM CST
Civil Twilight 6:19 AM CST 5:47 PM CST
Nautical Twilight 5:47 AM CST 6:19 PM CST
Astronomical Twilight 5:15 AM CST 6:51 PM CST
Moon 7:10 AM CST (2/11) 7:16 PM CST (2/11)
Length of Visible Light 11h 27m
Length of Day
10h 30m
Waxing Crescent, 3% of the Moon is Illuminated
Feb 11
Waxing Crescent
Feb 17
First Quarter
Feb 25
Full
Mar 4
Last Quarter
Mar 11
New

Hourly Weather History & Observations

Time (CST) Temp. Windchill Dew Point Humidity Pressure Visibility Wind Dir Wind Speed Gust Speed Precip Events Conditions
12:15 AM 48.2 °F - 44.6 °F 87% 29.61 in 10.0 mi SW 21.9 mph 28.8 mph N/A   Mostly Cloudy
12:35 AM 46.4 °F 38.3 °F 37.4 °F 71% 29.61 in 10.0 mi SW 23.0 mph 29.9 mph N/A   Scattered Clouds
12:55 AM 46.4 °F 37.5 °F 33.8 °F 62% 29.61 in 10.0 mi SW 27.6 mph 34.5 mph N/A   Scattered Clouds
1:15 AM 44.6 °F 36.4 °F 35.6 °F 71% 29.62 in 10.0 mi SW 20.7 mph 28.8 mph N/A   Clear
1:35 AM 44.6 °F 36.6 °F 35.6 °F 71% 29.62 in 10.0 mi SW 19.6 mph 28.8 mph N/A   Clear
1:55 AM 42.8 °F 33.5 °F 33.8 °F 70% 29.63 in 10.0 mi SW 23.0 mph 33.4 mph N/A   Scattered Clouds
2:15 AM 41.0 °F 31.1 °F 33.8 °F 76% 29.64 in 10.0 mi SW 23.0 mph 26.5 mph N/A   Mostly Cloudy
2:35 AM 41.0 °F 31.1 °F 32.0 °F 70% 29.65 in 10.0 mi SW 23.0 mph 31.1 mph N/A   Overcast
2:55 AM 41.0 °F 31.6 °F 32.0 °F 70% 29.64 in 10.0 mi SW 20.7 mph 29.9 mph N/A   Mostly Cloudy
3:15 AM 41.0 °F 30.9 °F 32.0 °F 70% 29.65 in 10.0 mi WSW 24.2 mph 33.4 mph N/A   Mostly Cloudy
3:35 AM 39.2 °F 29.0 °F 32.0 °F 75% 29.65 in 10.0 mi SW 21.9 mph 33.4 mph N/A   Overcast
3:55 AM 39.2 °F 29.8 °F 32.0 °F 75% 29.66 in 10.0 mi WSW 18.4 mph 27.6 mph N/A   Overcast
4:15 AM 37.4 °F 25.9 °F 32.0 °F 81% 29.67 in 10.0 mi WSW 25.3 mph 35.7 mph N/A   Overcast
4:35 AM 37.4 °F 26.4 °F 30.2 °F 75% 29.69 in 10.0 mi WSW 23.0 mph 38.0 mph N/A   Overcast
4:55 AM 35.6 °F 23.2 °F 30.2 °F 81% 29.69 in 10.0 mi WSW 26.5 mph 36.8 mph N/A   Overcast
5:15 AM 35.6 °F 23.0 °F 30.2 °F 81% 29.70 in 10.0 mi WSW 27.6 mph 32.2 mph N/A   Overcast
5:35 AM 35.6 °F 23.2 °F 30.2 °F 81% 29.71 in 10.0 mi WSW 26.5 mph 40.3 mph N/A   Overcast
5:55 AM 35.6 °F 24.5 °F 30.2 °F 81% 29.71 in 10.0 mi WSW 20.7 mph 32.2 mph N/A   Overcast
6:15 AM 33.8 °F 21.0 °F 30.2 °F 87% 29.72 in 10.0 mi WSW 25.3 mph 34.5 mph N/A   Overcast
6:35 AM 33.8 °F 21.9 °F 28.4 °F 81% 29.73 in 10.0 mi WSW 21.9 mph 29.9 mph N/A   Overcast
6:55 AM 33.8 °F 22.5 °F 28.4 °F 81% 29.74 in 10.0 mi WSW 19.6 mph 29.9 mph N/A   Overcast
7:15 AM 33.8 °F 22.5 °F 28.4 °F 81% 29.75 in 10.0 mi WSW 19.6 mph 26.5 mph N/A   Overcast
7:35 AM 33.8 °F 22.5 °F 28.4 °F 81% 29.76 in 10.0 mi WSW 19.6 mph 27.6 mph N/A   Overcast
7:55 AM 33.8 °F 22.2 °F 28.4 °F 81% 29.77 in 10.0 mi WSW 20.7 mph 32.2 mph N/A   Overcast
8:15 AM 33.8 °F 21.6 °F 28.4 °F 81% 29.78 in 10.0 mi WSW 23.0 mph 31.1 mph N/A   Overcast
8:35 AM 33.8 °F 21.9 °F 26.6 °F 75% 29.79 in 10.0 mi WSW 21.9 mph 31.1 mph N/A   Overcast
8:55 AM 33.8 °F 22.2 °F 28.4 °F 81% 29.80 in 10.0 mi WSW 20.7 mph 28.8 mph N/A   Overcast
9:15 AM 33.8 °F 21.0 °F 28.4 °F 81% 29.80 in 10.0 mi WSW 25.3 mph 33.4 mph N/A   Overcast
9:35 AM 33.8 °F 22.8 °F 28.4 °F 81% 29.81 in 10.0 mi WSW 18.4 mph 33.4 mph N/A   Overcast
9:55 AM 33.8 °F 21.6 °F 28.4 °F 81% 29.81 in 10.0 mi WSW 23.0 mph 31.1 mph N/A   Overcast
10:15 AM 33.8 °F 20.8 °F 28.4 °F 81% 29.82 in 10.0 mi WSW 26.5 mph 35.7 mph N/A   Overcast
10:35 AM 33.8 °F 20.1 °F 26.6 °F 75% 29.83 in 10.0 mi WSW 29.9 mph 41.4 mph N/A   Overcast
10:55 AM 33.8 °F 21.3 °F 28.4 °F 81% 29.84 in 10.0 mi West 24.2 mph 31.1 mph N/A   Overcast
11:15 AM 33.8 °F 22.2 °F 28.4 °F 81% 29.85 in 10.0 mi West 20.7 mph 29.9 mph N/A   Overcast
11:35 AM 33.8 °F 21.0 °F 26.6 °F 75% 29.85 in 10.0 mi WSW 25.3 mph 35.7 mph N/A   Overcast
11:55 AM 33.8 °F 21.9 °F 28.4 °F 81% 29.85 in 10.0 mi WSW 21.9 mph 32.2 mph N/A   Overcast
12:15 PM 33.8 °F 20.5 °F 26.6 °F 75% 29.85 in 10.0 mi WSW 27.6 mph 36.8 mph N/A   Overcast
12:35 PM 33.8 °F 20.5 °F 26.6 °F 75% 29.86 in 10.0 mi WSW 27.6 mph 36.8 mph N/A   Overcast
12:55 PM 33.8 °F 21.0 °F 26.6 °F 75% 29.86 in 10.0 mi WSW 25.3 mph 39.1 mph N/A   Overcast
1:15 PM 33.8 °F 23.5 °F 28.4 °F 81% 29.87 in 10.0 mi WSW 16.1 mph 27.6 mph N/A   Overcast
1:35 PM 33.8 °F 21.0 °F 28.4 °F 81% 29.87 in 10.0 mi WSW 25.3 mph 35.7 mph N/A   Overcast
1:55 PM 33.8 °F 20.8 °F 28.4 °F 81% 29.88 in 10.0 mi WSW 26.5 mph 34.5 mph N/A   Overcast
2:15 PM 33.8 °F 21.3 °F 28.4 °F 81% 29.89 in 10.0 mi WSW 24.2 mph 36.8 mph N/A   Overcast
2:35 PM 33.8 °F 23.2 °F 28.4 °F 81% 29.89 in 10.0 mi West 17.3 mph 27.6 mph N/A   Overcast
2:55 PM 33.8 °F 21.3 °F 28.4 °F 81% 29.90 in 10.0 mi WSW 24.2 mph 32.2 mph N/A   Overcast
3:15 PM 33.8 °F 21.3 °F 26.6 °F 75% 29.91 in 10.0 mi WSW 24.2 mph 32.2 mph N/A   Overcast
3:35 PM 33.8 °F 21.0 °F 26.6 °F 75% 29.92 in 10.0 mi WSW 25.3 mph 31.1 mph N/A   Overcast
3:55 PM 33.8 °F 20.8 °F 26.6 °F 75% 29.94 in 10.0 mi WSW 26.5 mph 40.3 mph N/A   Overcast
4:55 PM 32.0 °F 21.2 °F 26.6 °F 80% 29.96 in 10.0 mi WSW 16.1 mph 34.5 mph N/A   Overcast
5:15 PM 32.0 °F 19.2 °F 26.6 °F 80% 29.96 in 10.0 mi WSW 23.0 mph 31.1 mph N/A   Overcast
5:35 PM 32.0 °F 19.8 °F 26.6 °F 80% 29.97 in 10.0 mi West 20.7 mph 29.9 mph N/A   Overcast
5:55 PM 32.0 °F 20.1 °F 26.6 °F 80% 29.98 in 10.0 mi West 19.6 mph 27.6 mph N/A   Overcast
6:15 PM 32.0 °F 21.2 °F 26.6 °F 80% 29.99 in 10.0 mi West 16.1 mph 23.0 mph N/A   Overcast
6:35 PM 32.0 °F 20.8 °F 26.6 °F 80% 29.99 in 10.0 mi West 17.3 mph 24.2 mph N/A   Overcast
6:55 PM 32.0 °F 20.8 °F 26.6 °F 80% 29.99 in 10.0 mi West 17.3 mph 25.3 mph N/A   Overcast
7:15 PM 32.0 °F 20.8 °F 28.4 °F 87% 29.99 in 10.0 mi West 17.3 mph 21.9 mph N/A   Overcast
7:55 PM 32.0 °F 20.1 °F 26.6 °F 80% 30.00 in 10.0 mi West 19.6 mph 27.6 mph N/A   Overcast
8:15 PM 32.0 °F 20.5 °F 26.6 °F 80% 30.00 in 10.0 mi West 18.4 mph 25.3 mph N/A   Overcast
8:35 PM 32.0 °F 22.1 °F 26.6 °F 80% 30.01 in 10.0 mi West 13.8 mph 25.3 mph N/A   Overcast
8:55 PM 32.0 °F 21.6 °F 26.6 °F 80% 30.01 in 10.0 mi West 15.0 mph 24.2 mph N/A   Overcast
9:15 PM 32.0 °F 21.6 °F 28.4 °F 87% 30.01 in 10.0 mi West 15.0 mph 23.0 mph N/A   Overcast
9:35 PM 32.0 °F 20.8 °F 28.4 °F 87% 30.02 in 10.0 mi West 17.3 mph 24.2 mph N/A   Overcast
9:55 PM 32.0 °F 22.5 °F 26.6 °F 80% 30.03 in 10.0 mi West 12.7 mph 25.3 mph N/A   Overcast
10:15 PM 32.0 °F 20.5 °F 26.6 °F 80% 30.02 in 10.0 mi West 18.4 mph 25.3 mph N/A   Overcast
10:35 PM 32.0 °F 21.6 °F 28.4 °F 87% 30.02 in 10.0 mi West 15.0 mph - N/A   Overcast
10:55 PM 32.0 °F 21.6 °F 28.4 °F 87% 30.03 in 10.0 mi West 15.0 mph - N/A   Overcast
11:15 PM 32.0 °F 23.0 °F 28.4 °F 87% 30.03 in 10.0 mi West 11.5 mph 20.7 mph N/A   Overcast
11:35 PM 32.0 °F 20.1 °F 26.6 °F 80% 30.04 in 10.0 mi West 19.6 mph - N/A   Overcast
11:55 PM 32.0 °F 22.5 °F 26.6 °F 80% 30.05 in 10.0 mi West 12.7 mph 26.5 mph N/A   Overcast